Weather in Sretensk

Russia / Zabaykalsky Krai     52°14′46″N   117°42′42″E
В апреле 2022 года жителям России запретили посещать сайт meteo.paraplan.net по решению Генеральной прокуратуры. Аудитория сайта уменьшилась в 10 раз. Владельцы сайта не видят смысла в поддержке погодного сервера в таких условиях. Сайт будет закрыт в октябре.
temp.,
°C
wind,
m/s
gust,
m/s
humid.,
%
clouds,
%
prec.,
mm/h
press.,
hPa
HPBL,
m
3 october, mon
mon300:00−4sw115112 0.0 102610
03:00−5w11559 0.0 102710
06:00−6w115822 0.0 102912
09:00−3wnw274218 0.0 1029565
12:00+1nw5726100 0.0 10282540
15:00+2nw5624100 0.0 10272780
18:00+1nw363278 0.0 1028336
21:00−4w11475 0.0 103010
4 october, tue
tue400:00−5wsw11484 0.0 103110
03:00−6wsw11500 0.0 103110
06:00−7wsw11510 0.0 103111
09:00−3wsw12390 0.0 1031214
12:00+2w34295 0.0 10291265
15:00+4nw462442 0.0 10262486
18:00+1nw233618 0.0 102649
21:00−4w114997 0.0 102810
5 october, wed
wed500:00−5sw115270 0.0 102810
03:00−6wsw115724 0.0 102810
06:00−6wsw11588 0.0 102910
09:00−3wsw12455 0.0 1028202
12:00+2w36305 0.0 10261428
15:00+4w452862 0.0 10232107
18:00+1wsw25419 0.0 1023120
21:00−4ssw11555 0.0 102510
6 october, thu
thu600:00−5ssw11605 0.0 102512
03:00−6ssw11630 0.0 102412
06:00−6ssw11660 0.0 102411
09:00−2sw11530 0.0 1023158
12:00+3w24363 0.0 1021907
15:00+5w34311 0.0 10191398
18:00+2wsw22455 0.0 101914
21:00−3ssw11575 0.0 102110
7 october, fri
fri700:00−4s11645 0.0 102211
03:00−5sse11685 0.0 102310
06:00−5sse11715 0.0 102310
09:00−1s01555 0.0 1023134
12:00+5wsw11355 0.0 1021718
15:00+7wnw113220 0.0 10201422
18:00+3nw114885 0.0 102110
21:00−1ne1158100 0.0 102310